Flag for Australia Weather past 2 weeks in Darwin, Northern Territory, Australia

Now
84 °F

Passing clouds.


Feels Like: 83 °F
Forecast: 67 / 85 °F
Wind: 12 mph from Southeast

Location: Darwin Airport

Current Time: Jul 23, 2014 at 3:34:13 PM

Latest Report: Jul 23, 2014 at 1:30 PM


Visibility: N/A

Pressure: 29.89 "Hg

Humidity: 40%

Dew point: 57 °F

Location of DarwinLocation

Historic Weather in Darwin — Graph

°F

Darwin temperature yesterday

Maximum temperature yesterday: 88 °F (at 2:30 PM)
Minimum temperature yesterday: 64 °F (at 3:00 AM)
Average temperature yesterday: 75 °F

Past Weeks' High & Low Weather Summary

 TemperatureHumidityPressure
High90 °F (Jul 15, 3:00 PM)100% (Jul 10, 2:00 AM)30.04 "Hg (Jul 10, 2:00 AM)
Low64 °F (Jul 9, 2:30 AM)17% (Jul 12, 2:30 PM)29.83 "Hg (Jul 8, 2:30 PM)
Average76 °F64%29.93 "Hg
* Reported Jul 8 1:30 PM — Jul 23 1:30 PM, Darwin, Weather by CustomWeather, © 2014

Note: Actual official high and low records may vary slightly from our data, if they occured in-between our weather recording intervals... More about our weather records

Advertising

Darwin weather history for previous 24 hours

 ConditionsComfort  
Time TempWeatherWind HumidityBarometerVisibility
1:30 PM
Jul 23
84 °FPassing clouds.12 mph40%29.89 "HgN/A
1:00 PM82 °FPassing clouds.8 mph42%29.92 "HgN/A
12:30 PM82 °FPassing clouds.8 mph42%29.92 "HgN/A
12:00 PM81 °FSunny.12 mph45%29.95 "Hg10 mi
11:30 AM81 °FSunny.13 mph45%29.98 "Hg10 mi
11:00 AM79 °FSunny.14 mph48%29.98 "Hg10 mi
10:30 AM77 °FSunny.14 mph57%29.98 "Hg10 mi
9:00 AM73 °FPassing clouds.9 mph74%30.01 "HgN/A
8:30 AM72 °FSunny.8 mph78%29.98 "Hg10 mi
2:00 AM68 °FClear.7 mph88%29.95 "Hg10 mi
1:30 AM70 °FClear.5 mph83%29.95 "Hg10 mi
1:00 AM70 °FClear.7 mph83%29.95 "Hg10 mi
12:30 AM70 °FClear.8 mph83%29.95 "Hg10 mi
12:00 AM70 °FClear.8 mph83%29.95 "Hg10 mi
11:30 PM
Jul 22
72 °FClear.9 mph73%29.95 "Hg10 mi
11:00 PM70 °FClear.8 mph78%29.95 "Hg10 mi
10:30 PM72 °FClear.9 mph73%29.95 "Hg10 mi
10:00 PM73 °FClear.12 mph65%29.95 "Hg10 mi
9:30 PM73 °FClear.13 mph65%29.95 "Hg10 mi
9:00 PM72 °FClear.10 mph73%29.95 "Hg10 mi
8:30 PM72 °FClear.10 mph69%29.92 "Hg10 mi
8:00 PM73 °FClear.12 mph65%29.92 "Hg10 mi
7:30 PM73 °FClear.10 mph61%29.92 "Hg10 mi
7:00 PM75 °FSunny.10 mph54%29.89 "Hg10 mi
6:30 PM77 °FSunny.12 mph54%29.89 "Hg10 mi
6:00 PM81 °FSunny.15 mph48%29.86 "Hg10 mi
5:30 PM86 °FSunny.10 mph22%29.86 "Hg10 mi
5:00 PM86 °FSunny.13 mph20%29.86 "Hg10 mi
4:30 PM86 °FSunny.15 mph22%29.86 "Hg10 mi
4:00 PM88 °FSunny.15 mph17%29.86 "Hg10 mi
3:30 PM88 °FSunny.16 mph19%29.86 "Hg10 mi
3:00 PM88 °FSunny.12 mph21%29.86 "Hg10 mi
Weather by CustomWeather, © 2014

See weather overviewHow to use our weather pages